Regional Weather Roundup
Issued by NWS

Home | Current Version | Previous Version | Graphics & Text | Print | Product List | Glossary On
Versions: 1 2 3 4 5 6 7 8 9 10 11 12 13 14 15 16 17 18 19 20 21 22 23 24 25 26 27 28 29 30 31 32 33 34 35 36 37 38 39 40 41 42 43 44 45 46 47 48 49
000
ASUS45 KBOU 211007
RWRCO

WEATHER ROUNDUP FOR COLORADO
NATIONAL WEATHER SERVICE DENVER/BOULDER CO
400 AM MDT SUN SEP 21 2014

NOTE: "FAIR" INDICATES FEW OR NO CLOUDS BELOW 12000 FEET WITH NO
SIGNIFICANT WEATHER AND/OR OBSTRUCTIONS TO VISIBILITY.

COZ001>005-013-030-031-211100-
...NORTHWEST COLORADO...

CITY           SKY/WX    TMP DP  RH WIND       PRES   REMARKS
CRAIG          CLEAR     41  34  76 CALM      30.26R
HAYDEN         CLEAR     52  36  54 E10       30.26S
MEEKER         NOT AVBL
MOUNT WERNER   NOT AVBL
STEAMBOAT SPGS CLEAR     48  38  69 NW3       30.30S
WALDEN         CLEAR     37  34  87 SE5       30.41S
$$

COZ006>008-011-211100-
...WEST CENTRAL VALLEYS...

CITY           SKY/WX    TMP DP  RH WIND       PRES   REMARKS
GRAND JUNCTION MOCLDY    69  41  36 E10       30.15R
MONTROSE       LGT RAIN  66  48  52 E3        30.25R
EAGLE          PTCLDY    54  43  66 CALM      30.33R
RIFLE          PTCLDY    57  42  57 SE5       30.20R
DELTA          MOCLDY    68  46  44 NW3       30.21R
NUCLA          CLOUDY    70  46  43 SE13G22   30.31R
$$

COZ017>023-064>068-211100-
...SOUTHWEST COLORADO...

CITY           SKY/WX    TMP DP  RH WIND       PRES   REMARKS
DURANGO        TSTM      55  55 100 NW15G21   30.35R FOG
CORTEZ         LGT RAIN  60  56  86 E7        30.27S
PAGOSA SPRINGS CLOUDY    57  50  77 NW13      30.39R
TELLURIDE      NOT AVBL
WOLF CREEK PAS MOCLDY    41  41 100 NE7       30.66S
$$

COZ009-010-012-014-032>034-037-058>063-211100-
...CENTRAL COLORADO...

CITY           SKY/WX    TMP DP  RH WIND       PRES   REMARKS
ASPEN          PTCLDY    61  42  49 SE13G21   30.35S
BUENA VISTA    CLOUDY    53  51  90 CALM      30.48F
COPPER MTN     PTCLDY    46  36  66 S26G35    30.64F
BERTHOUD PASS  FOG       36  34  93 SE26      30.71S VSB 1/4
COTTONWOOD PAS CLOUDY    52  45  76 CALM      30.58F
GUNNISON       MOCLDY    54  43  66 N8        30.43R
KREMMLING      PTCLDY    50  39  66 NE3       30.38S
LEADVILLE      MOCLDY    42  40  92 E3        30.56S
MONARCH PASS   HVY SNOW  41  41 100 E16       30.78S VSB<1/4
SALIDA         CLOUDY    55  53  92 CALM      30.54S
SUNLIGHT       CLOUDY    54  39  58 SE6       30.57R
WILKERSON PASS NOT AVBL
$$

COZ069>075-211100-
...SAN LUIS VALLEY/SANGRE DE CRISTO MOUNTAINS...

CITY           SKY/WX    TMP DP  RH WIND       PRES   REMARKS
ALAMOSA        LGT RAIN  53  45  74 W5        30.40S
LA VETA PASS   LGT RAIN  45  43  93 NE13      30.58S VSB 1/4
SAGUACHE       NOT AVBL
$$

COZ035-036-038>040-211100-
...NORTHERN COLORADO FRONT RANGE...

CITY           SKY/WX    TMP DP  RH WIND       PRES   REMARKS
DENVER INTL AP CLOUDY    60  44  55 E16       30.34S
DMNS CITY PARK   N/A     61  52  71 NW8       30.34R
AURORA         CLOUDY    60  47  62 SE7       30.36R
FRONT RANGE AP CLOUDY    61  45  55 E15       30.35S
ERIE MUNI ARPT CLOUDY    59  45  59 N7        30.36R
BOULDER MUN AP CLOUDY    61  43  51 N9        30.37R
CENTENNIAL     CLOUDY    60  55  83 NW10      30.36R
BROOMFIELD     CLOUDY    59  45  58 N13       30.38R
FORT COLLINS   CLOUDY    61  41  48 N6        30.39S
LONGMONT       CLOUDY    63  45  51 N8        30.38S
$$

COZ041-046-047-076>085-087-088-211100-
...PIKES PEAK/PALMER DIVIDE AND SOUTHERN FOOTHILLS...

CITY           SKY/WX    TMP DP  RH WIND       PRES   REMARKS
COLO. SPRINGS  CLOUDY    62  49  62 SE9       30.40S
A. F. ACADEMY  CLOUDY    61  49  66 SE10      30.39F
ELLICOTT       NOT AVBL
FALCON         CLOUDY    56  47  70 SE7       30.44S
FORT CARSON    CLOUDY    61  53  76 SW8       30.38R
LIMON          CLOUDY    57  44  62 SE12      30.38R
MONUMENT HILL  CLOUDY    55  46  71 S7        30.41S
TRINIDAD       CLOUDY    63  53  70 N12G23    30.36R
$$

COZ042>045-048>051-090-091-211100-
...NORTHEAST COLORADO...

CITY           SKY/WX    TMP DP  RH WIND       PRES   REMARKS
GREELEY ARPT   CLOUDY    61  41  48 NE6       30.36R
AKRON          CLOUDY    54  43  66 SE9       30.33S
BURLINGTON     CLEAR     53  46  77 NE5       30.31R
WRAY           CLEAR     50  44  81 NW3       30.30S
STERLING       CLOUDY    55  50  82 CALM      30.32S
HOLYOKE        CLEAR     54  45  71 NW3       30.32R
FORT MORGAN    CLOUDY    56  44  62 NE6       30.35R
$$

COZ086-089-092>099-211100-
...SOUTHEAST COLORADO...

CITY           SKY/WX    TMP DP  RH WIND       PRES   REMARKS
PUEBLO         LGT RAIN  61  58  90 S9        30.33R
LA JUNTA       MOCLDY    63  51  65 W10       30.29R
LAMAR          PTCLDY    53  48  83 N7        30.25R
SPRINGFIELD      N/A     59  54  83 N5        30.26R
$$


USA.gov is the U.S. government's official web portal to all federal, state and local government web resources and services.